Location: Denier
(50.2882°N, 2.4438°E)
Time: 13:06:39
(UTC+00:00)

Daily predictions for brighter satellites

Satellite Brightness Start Highest point End
(mag) Time Altitude Azimuth Time Altitude Azimuth Time Altitude Azimuth
CZ-4B R/B 1.0 20:42:23 10° NNE 20:45:17 84° WNW 20:48:10 10° SSW
USA 234 4.2 20:41:40 10° ENE 20:47:58 50° N 20:54:15 10° WNW
ATLAS 2AS CENTAUR R/B 4.3 20:42:20 10° WNW 20:48:03 27° WSW 20:53:29 10° SSW
ARIANE 5 R/B 3.8 20:44:54 10° SE 20:48:46 30° ENE 20:52:37 10° N
Terra 2.5 20:44:41 10° SE 20:49:09 42° ENE 20:53:38 10° N
SPOT 3 Rocket 3.6 20:45:40 10° SSE 20:50:53 89° ENE 20:56:09 10° NNW
RESURS DK-1 3.5 20:47:56 10° NW 20:51:47 38° WSW 20:55:36 10° S
SPOT 5 2.8 20:47:34 10° SSE 20:51:50 59° ENE 20:56:06 10° N
USA 276 1.9 20:49:41 10° W 20:52:44 85° S 20:55:46 10° E
FALCON 9 DEB 3.1 20:50:45 10° WNW 20:54:01 77° NNE 20:57:18 10° ESE
Cosmos 1455 4.0 20:50:53 10° NNW 20:54:16 30° W 20:57:38 10° SSW
Cosmos 1726 Rocket 4.0 20:52:44 10° N 20:56:56 47° ENE 21:01:07 10° SSE
IRAS Rocket 4.3 20:56:08 10° NNE 21:01:46 82° ESE 21:07:19 10° SSW
Cosmos 2074 Rocket 4.3 20:57:02 10° NNW 21:03:18 73° W 21:09:30 10° S
Cosmos 1331 Rocket 4.0 20:58:01 10° SSW 21:03:19 78° ESE 21:08:38 10° NNE
Cosmos 2082 Rocket 2.7 20:59:11 10° S 21:04:28 40° ESE 21:09:45 10° NE
Helios 1A Rocket 2.9 21:05:06 10° SSE 21:09:10 79° ENE 21:13:18 10° NNW
Spot 2 Rocket 3.5 21:04:30 10° SSE 21:09:36 87° ENE 21:14:46 10° NNW
Cosmos 1328 4.0 21:05:50 10° S 21:09:43 54° E 21:13:38 10° NNE
Cosmos 2084 Rocket 3.8 21:06:22 10° NW 21:10:09 49° SW 21:13:53 11° SSE
Cosmos 2360 Rocket 4.2 21:07:40 10° N 21:11:49 20° NE 21:15:58 10° E
Nadezhda 1 Rocket 3.9 21:09:04 10° S 21:15:07 78° E 21:21:13 10° NNE
X-37B 2.7 21:23:31 10° SW 21:24:34 12° SSW 21:25:27 10° S
ERS-1 Rocket 3.1 21:22:10 10° S 21:27:13 77° WSW 21:32:17 10° NNW
Cosmos 1892 3.4 21:26:26 14° SSE 21:29:15 37° E 21:32:46 10° NNE
Meteor 1-21 Rocket 4.5 21:26:19 10° SSW 21:31:56 75° WNW 21:37:42 10° N
Cosmos 2228 4.2 21:30:32 10° NNW 21:34:28 37° W 21:38:22 10° SSW
Cosmos 1302 Rocket 3.9 21:30:14 10° SSW 21:35:24 73° ESE 21:40:36 10° NNE
Cosmos 192 4.3 21:33:45 10° SSW 21:38:39 88° ESE 21:43:35 10° NNE
Cosmos 968 Rocket 3.8 21:36:52 10° NNW 21:42:02 64° WSW 21:46:30 14° S
Cosmos 1892 Rocket 3.5 21:38:05 10° S 21:42:29 81° E 21:46:51 10° NNE
ASTRO F (AKARI) 4.5 21:40:19 17° SSE 21:42:54 81° ENE 21:46:24 10° NNW
Cosmos 1697 Rocket 4.0 21:39:30 10° NW 21:44:26 32° WSW 21:49:20 10° SSW
Cosmos 1980 Rocket 2.6 21:39:47 10° NW 21:45:23 59° WSW 21:50:07 14° S
Cosmos 2219 Rocket 4.4 21:43:37 10° N 21:47:31 18° NE 21:51:24 10° ENE
SL-16 R/B 2.8 21:42:40 10° NNW 21:48:13 51° NE 21:52:57 14° SE
Cosmos 2058 Rocket 3.1 21:45:23 10° N 21:49:50 87° W 21:53:20 16° S
Cosmos 1408 2.3 21:48:44 15° S 21:51:29 81° E 21:54:57 10° NNE
Cosmos 1626 Rocket 4.3 21:50:06 18° SSE 21:52:46 37° E 21:56:49 10° NNE
SL-8 Rocket 4.0 21:46:42 10° N 21:52:58 80° E 21:58:01 16° SSE
CZ-2C R/B 3.8 21:49:12 10° NNE 21:53:45 76° WNW 21:58:13 10° SSW
Cosmos 2369 4.4 21:48:18 10° NW 21:53:46 46° WSW 21:58:31 13° S
ATLAS 5 CENTAUR R/B 1.6 21:50:51 11° SSW 21:54:17 43° SE 21:58:15 10° NE
USA 267 4.1 21:48:56 10° ENE 21:54:24 28° SE 21:59:31 11° S
Resurs 01 Rocket 4.4 21:53:55 10° WSW 21:55:09 11° W 21:56:22 10° WNW
SJ 16-02 2.5 21:56:19 10° N 22:00:24 35° ENE 22:03:35 15° ESE
SL-4 R/B 3.7 22:04:44 13° ESE 22:04:44 13° ESE 22:05:25 10° E
In-Cosmos 22 Rocket 4.2 21:59:04 15° S 22:03:41 67° E 22:09:03 10° NNE
COSMOS 2406 3.8 21:59:03 10° SW 22:04:46 62° WNW 22:10:29 10° NNE
Cosmos 1825 2.2 22:08:00 23° S 22:10:12 61° E 22:13:55 10° NNE
Cosmos 1833 Rocket 4.2 22:05:06 10° WSW 22:10:18 38° NW 22:15:33 10° NNE
Cosmos 1867 4.5 22:06:38 10° NW 22:11:38 38° WSW 22:15:18 17° S
Cosmos 2366 rocket 4.1 22:06:59 10° N 22:13:22 88° WSW 22:18:15 18° S
Cosmos 1869 3.2 22:12:13 10° N 22:16:08 90° SW 22:18:25 24° S
Cosmos 2218 Rocket 4.1 22:13:23 10° NNW 22:19:50 81° W 22:24:43 18° S
Cosmos 2322 Rocket 2.5 22:16:40 10° NNW 22:22:20 64° ENE 22:26:28 19° SE
GP-B 3.3 22:18:47 10° N 22:23:13 69° W 22:26:26 18° SSW
Meteor 1-27 4.3 22:17:56 10° NNW 22:23:31 74° W 22:27:28 20° S
ARIANE 5 R/B 3.8 22:21:46 14° SSW 22:25:09 35° W 22:29:14 10° NNW
Terra 3.4 22:22:57 10° SSW 22:27:02 29° W 22:31:10 10° NW
SAR-Lupe-4 3.5 22:23:53 10° NNE 22:27:29 89° ESE 22:29:35 23° SSW
USA 276 2.6 22:25:29 10° W 22:28:19 37° SSW 22:28:42 35° S
FALCON 9 DEB 4.1 22:27:14 10° W 22:30:04 27° SW 22:30:31 26° SSW
USA 234 3.5 22:24:03 10° ESE 22:30:35 72° NNE 22:37:07 10° WNW
BREEZE-M DEB (TANK) 3.4 22:33:06 10° W 22:36:04 77° S 22:46:40 10° ESE
Cosmos 1633 2.4 22:39:00 33° S 22:40:24 69° E 22:43:51 10° NNE
Cosmos 1992 Rocket 4.2 22:37:45 10° SSW 22:42:59 71° WNW 22:48:14 10° NNE
Cosmos 2333 Rocket 3.2 22:37:39 10° NNW 22:43:10 42° NE 22:48:05 13° ESE
Okean 1-7 Rocket 4.0 22:40:57 17° SSW 22:44:17 61° WNW 22:48:47 10° N
Cosmos 1758 Rocket 3.6 22:42:24 28° SSE 22:44:37 63° E 22:49:00 10° NNE
ASTEX 1 4.2 22:42:12 10° N 22:47:02 49° WNW 22:51:10 14° SSW
Cosmos 2082 Rocket 3.4 22:43:07 10° WSW 22:48:33 43° NW 22:53:58 10° NNE
Cosmos 1606 2.7 22:48:52 10° N 22:52:44 71° ENE 22:54:21 33° SSE
Cosmos-2242 2.9 22:48:51 10° NNW 22:53:07 84° W 22:55:10 30° S
Cosmos 1812 Rocket 3.7 22:49:24 10° NNW 22:53:51 68° W 22:56:09 27° S
Cosmos 2360 Rocket 2.3 22:51:07 10° NNW 22:56:50 75° ENE 23:00:31 23° SE
ADEOS Rocket 3.6 22:53:14 21° SSE 22:58:33 77° ENE 23:06:21 10° NNW
Cosmos 1340 Rocket 3.7 22:58:42 27° SE 22:59:57 34° E 23:03:34 10° NNE
Gbstr 26 Del rocket 3.5 22:59:00 30° S 23:00:21 38° SE 23:04:56 10° ENE
Cosmos 1821 Rocket 4.1 23:01:20 10° NNW 23:07:33 72° W 23:11:22 24° S
Cosmos 1602 Rocket 3.9 23:05:35 22° SSW 23:08:11 59° WNW 23:12:29 10° N
BREEZE-M DEB (TANK) 4.3 23:12:25 19° ESE 23:12:25 19° ESE 23:14:48 10° E
SL-27 R/B 4.2 23:13:18 18° ESE 23:13:22 18° E 23:15:37 10° ENE
Cosmos 972 Rocket 4.2 23:10:05 10° NNW 23:15:18 74° ENE 23:18:41 25° SSE
Cosmos 44 3.7 23:14:09 31° SSE 23:15:33 40° ESE 23:19:44 10° NE
ERS-2 2.9 23:18:48 10° NNE 23:22:09 35° E 23:22:56 31° SE
Cosmos 2237 Rocket 4.3 23:18:15 10° NNW 23:22:41 23° NE 23:27:05 10° E
ALOS 2 2.7 23:21:37 32° S 23:23:33 70° WSW 23:27:58 10° NNW
Spot 4 4.4 23:21:49 26° SSW 23:24:11 47° W 23:28:51 10° NNW
Cosmos 1605 Rocket 4.5 23:17:59 10° N 23:24:18 56° ENE 23:28:27 22° SE
CENTAUR R/B 3.9 23:22:31 17° SE 23:24:31 20° ESE 23:29:08 10° ENE
COSMOS 2428 3.5 23:24:06 10° NNW 23:29:38 47° NE 23:34:37 13° SE
NOSS 8 (A) 4.3 23:29:30 50° SSE 23:29:57 57° SE 23:32:52 10° NE
Cosmos 1777 Rocket 4.4 23:25:28 10° NNW 23:30:37 53° WSW 23:33:07 28° S
H-2A R/B 3.4 23:26:38 10° NNE 23:30:52 83° WNW 23:32:48 31° SSW
Cosmos 2058 2.9 23:29:58 33° SSW 23:31:49 80° WNW 23:36:01 10° N
Nadezhda 3 Rocket 4.1 23:28:02 22° SSW 23:32:07 71° WNW 23:38:18 10° N
SL-16 R/B 3.2 23:27:07 10° NW 23:32:07 33° WSW 23:34:48 22° SSW
Cosmos 2219 Rocket 2.5 23:26:56 10° NNW 23:32:37 65° ENE 23:36:41 19° SE
Cosmos 1953 Rocket 3.5 23:33:03 34° S 23:34:57 77° E 23:39:23 10° NNE
USA 267 3.2 23:31:31 10° ENE 23:38:06 79° SE 23:44:39 10° SW
SJ 16-02 2.5 23:35:00 10° NW 23:38:54 31° WSW 23:40:31 24° SW
ATLAS 5 CENTAUR R/B 3.2 23:35:21 10° W 23:38:55 33° NNW 23:43:00 10° NE
Cosmos 2322 3.9 23:36:05 10° NNW 23:41:47 70° ENE 23:45:45 20° SE
SL-4 R/B 1.5 23:40:05 26° SW 23:41:52 68° SSE 23:45:34 10° ENE
Cosmos 1898 Rocket 4.3 23:38:06 10° NNW 23:43:07 47° ENE 23:47:02 16° SE
Cosmos 1825 Rocket 3.9 23:41:10 28° SW 23:43:18 58° WNW 23:47:37 10° N
COSMOS 2455 4.2 23:44:35 10° NNW 23:50:12 38° NE 23:55:47 10° ESE
Cosmos 2221 2.5 23:46:02 10° NNW 23:50:25 85° W 23:52:14 35° S
PSLV R/B 3.9 23:48:48 10° NNE 23:53:32 63° ESE 23:55:36 32° S
